FENGYUN 1C DEB

Satellite information

Favourite Embed

Satellite Type and Status

DEBRISIN ORBIT

Key statistics

Satellite FENGYUN 1C DEB at a glance.

Uptime

9715

Days in orbit

Revolutions

≈ 14.2

Per day

Orbit

SSO

Sun Synchronous Orbit

Inclination

99.0

Latest

Satellite identification and parameters

Extended collection of information and parameters for FENGYUN 1C DEB.

Object identification

Identified? True

Debris? True

Object name: FENGYUN 1C DEB

International designator: 1999-025YB

Object number (NORAD): 30266

Object ID (CCSDS): 30266

Country: PEOPLES REPUBLIC OF CHINA (PRC)

Current information (Y/N): Y

RCS size: SMALL

Orbital parameters

Period: 101.761 minutes

Inclination: 99.0427 deg

SMA: 7220.186 km

Apoapsis: 901.755 km

Periapsis: 782.348 km

RAAN: 50.3331 deg

Eccentricy: 0.00826897

Argument of periapsis: 67.7473 deg

Mean anomaly: 322.9627 deg

Mean motion: 14.15077285 rev/day

Mean motion (dot): 0.00003868 rev/day2

B* drag term: 0.0019523897 1/REarth

Two-line elements (TLE)

Creation date: Dec. 12, 2025, 10:14 a.m.

Reference frame: TEME

Reference center: EARTH

Epoch: Dec. 12, 2025, 3:07 a.m. UTC

TLE line 0: 0 FENGYUN 1C DEB

TLE line 1: 1 30266U 99025YB 25346.12987715 .00003868 00000-0 19524-2 0 9990

TLE line 2: 2 30266 99.0427 50.3331 0082690 67.7473 322.9627 14.15077285967816

Live tracking on map

Real-time ground track for satellite FENGYUN 1C DEB.

In-orbit conjunctions

A list of the most updated potential collisions computed for object FENGYUN 1C DEB.

Target Orbit TCA Probability of collision Miss distance Type
COSMOS 2056 LEO 2025-11-16 08:09:46 0.0001451038 690.0 (m) PAYLOAD
INTERCOSMOS 22 LEO 2025-03-20 16:42:56 0.0002671949 148.0 (m) PAYLOAD
CZ-6A DEB LEO 2024-11-11 20:30:12 0.0006184736 197.0 (m) DEBRIS

Associated space launch

Chinese polar orbiting meteorological satellite

FENGYUN 1C DEB was lifted into orbit during the mission ‘Long March 4B | Feng Yun 1C’, on board a Long March 4B space rocket.

The launch took place on May 10, 1999, 1:33 a.m. from Launch Complex 7.

For more information about the launch, click the button.

Launch to space Long March 4B | Feng Yun 1C
Long March 4B | Feng Yun 1C

Agency: N/A

Status: Launch Successful

Launch date: May 10, 1999, 1:33 a.m. UTC

Rocket: Long March 4B

Launch pad: Launch Complex 7

Location: Taiyuan Satellite Launch Center, People's Republic of China

...

Latest news about this satellite

There are no fresh news available about this satellite. Check back as we update our databases every day.


Newsletter sign-up

Weekly statistics, charts and insights to help you stay on top of the space industry.